EZY75CE DAAG-EGKK

Flight info

Callsign EZY75CE
Flight time 1h 22m
Altitude 36000
Route PECES DCT MAMOM DCT ELTAN DCT MHN DCT MEROS DCT LAPIT DCT CHELY DCT LUMAS DCT SOFFY DCT MRM DCT MTL DCT ETREK DCT MADOT DCT MOPEM DCT CACHI DCT AVLON DCT OKRIX DCT BRY DCT CLM DCT KOPOR DCT KESAX DCT KUNAV
Aircraft A320/M-SDE3FGHIRWY/LB1

Departure

Time 2026-05-04 16:00
Airport Houari Boumediene Airport (DAAG)

Arrival

Time 2026-05-04 17:23
Airport London Gatwick Airport (EGKK)
Time Latitude Longitude Altitude Speed Heading
2026-05-04 15:52 36.69630 3.20298 73 ft 0 kts 147°
2026-05-04 15:55 36.69629 3.20298 73 ft 1 kts 147°
2026-05-04 15:55 36.69598 3.20331 70 ft 9 kts 124°
2026-05-04 15:55 36.69588 3.20399 73 ft 9 kts 92°
2026-05-04 15:55 36.69583 3.20524 67 ft 17 kts 92°
2026-05-04 15:56 36.69582 3.20673 73 ft 16 kts 90°
2026-05-04 15:56 36.69580 3.20777 69 ft 8 kts 102°
2026-05-04 15:56 36.69544 3.20819 69 ft 6 kts 155°
2026-05-04 15:56 36.69506 3.20832 71 ft 7 kts 165°
2026-05-04 15:57 36.69434 3.20862 74 ft 11 kts 161°
2026-05-04 15:57 36.69385 3.20910 69 ft 8 kts 111°
2026-05-04 15:57 36.69383 3.21032 74 ft 18 kts 88°
2026-05-04 15:57 36.69381 3.21197 66 ft 20 kts 90°
2026-05-04 15:58 36.69380 3.21378 67 ft 22 kts 91°
2026-05-04 15:58 36.69379 3.21577 64 ft 24 kts 90°
2026-05-04 15:58 36.69379 3.21789 65 ft 22 kts 90°
2026-05-04 15:58 36.69379 3.21807 58 ft 0 kts 90°
2026-05-04 15:59 36.69379 3.21813 58 ft 5 kts 90°
2026-05-04 15:59 36.69378 3.21900 58 ft 12 kts 90°
2026-05-04 15:59 36.69382 3.22004 59 ft 12 kts 72°
2026-05-04 15:59 36.69432 3.22095 60 ft 16 kts 53°
2026-05-04 16:00 36.69609 3.22382 59 ft 75 kts 53°
2026-05-04 16:00 36.70046 3.23099 66 ft 130 kts 52°
2026-05-04 16:00 36.70689 3.24151 113 ft 169 kts 52°
2026-05-04 16:00 36.71421 3.25244 863 ft 160 kts 39°
2026-05-04 16:01 36.72460 3.25702 1383 ft 171 kts 357°
2026-05-04 16:01 36.73698 3.25303 1651 ft 194 kts 344°
2026-05-04 16:01 36.75065 3.24838 1930 ft 214 kts 347°
2026-05-04 16:01 36.76615 3.24467 2234 ft 238 kts 357°
2026-05-04 16:02 36.78311 3.24810 2709 ft 255 kts 17°
2026-05-04 16:02 36.80028 3.25530 3362 ft 266 kts 20°
2026-05-04 16:02 36.83571 3.27189 4759 ft 281 kts 20°
2026-05-04 16:03 36.85439 3.28027 5447 ft 288 kts 19°
2026-05-04 16:03 36.87366 3.28853 5885 ft 294 kts 18°
2026-05-04 16:03 36.89322 3.29660 6296 ft 298 kts 18°
2026-05-04 16:03 36.91307 3.30466 7128 ft 301 kts 17°
2026-05-04 16:04 36.93310 3.31273 7992 ft 304 kts 15°
2026-05-04 16:04 36.97396 3.32911 9634 ft 313 kts 12°
2026-05-04 16:04 36.99493 3.33751 10202 ft 323 kts 12°
2026-05-04 16:05 37.01711 3.34633 10379 ft 346 kts 12°
2026-05-04 16:05 37.04076 3.35577 10654 ft 364 kts 13°
2026-05-04 16:05 37.08978 3.37561 11827 ft 375 kts 13°
2026-05-04 16:06 37.11480 3.38576 12442 ft 380 kts 13°
2026-05-04 16:06 37.18272 3.41339 14040 ft 391 kts 13°
2026-05-04 16:07 37.21723 3.42747 14777 ft 396 kts 13°
2026-05-04 16:07 37.29677 3.45989 16467 ft 405 kts 13°
2026-05-04 16:08 37.32374 3.47085 17012 ft 408 kts 13°
2026-05-04 16:08 37.40573 3.50421 18583 ft 417 kts 13°
2026-05-04 16:09 37.46140 3.52697 19485 ft 424 kts 13°
2026-05-04 16:09 37.51774 3.55007 20388 ft 428 kts 13°
2026-05-04 16:10 37.57476 3.57348 21296 ft 433 kts 13°
2026-05-04 16:11 37.66094 3.60891 22582 ft 440 kts 13°
2026-05-04 16:11 37.69024 3.62092 22897 ft 445 kts 13°
2026-05-04 16:12 37.77973 3.65763 23938 ft 455 kts 14°
2026-05-04 16:12 37.87064 3.69514 24907 ft 462 kts 14°
2026-05-04 16:13 37.93205 3.72062 25472 ft 468 kts 14°
2026-05-04 16:13 37.99435 3.74645 26047 ft 473 kts 14°
2026-05-04 16:14 38.05722 3.77261 26653 ft 477 kts 14°
2026-05-04 16:14 38.12061 3.79907 27258 ft 481 kts 14°
2026-05-04 16:15 38.21622 3.83888 28167 ft 486 kts 14°
2026-05-04 16:16 38.28082 3.86585 28726 ft 490 kts 14°
2026-05-04 16:16 38.37845 3.90692 29498 ft 495 kts 14°
2026-05-04 16:17 38.44416 3.93449 29990 ft 499 kts 14°
2026-05-04 16:18 38.54522 3.96208 30723 ft 493 kts
2026-05-04 16:18 38.57914 3.96849 31037 ft 492 kts
2026-05-04 16:19 38.68073 3.98760 31863 ft 491 kts
2026-05-04 16:19 38.74835 4.00039 32431 ft 490 kts
2026-05-04 16:20 38.84944 4.01974 33313 ft 489 kts
2026-05-04 16:20 38.91663 4.03258 33895 ft 487 kts
2026-05-04 16:21 39.01689 4.05190 34672 ft 484 kts
2026-05-04 16:22 39.08344 4.06470 35142 ft 483 kts
2026-05-04 16:22 39.18305 4.08379 35770 ft 481 kts
2026-05-04 16:23 39.28185 4.10287 35988 ft 479 kts
2026-05-04 16:25 39.48062 4.14135 35957 ft 482 kts
2026-05-04 16:26 39.71333 4.18673 35962 ft 484 kts
2026-05-04 16:28 39.87968 4.21945 35976 ft 485 kts
2026-05-04 16:29 40.11305 4.27501 35949 ft 487 kts
2026-05-04 16:31 40.27938 4.31413 35937 ft 487 kts
2026-05-04 16:32 40.47990 4.36164 35930 ft 489 kts
2026-05-04 16:33 40.61396 4.39388 35919 ft 490 kts
2026-05-04 16:34 40.71436 4.41790 35928 ft 491 kts
2026-05-04 16:35 40.91598 4.46632 35949 ft 491 kts
2026-05-04 16:36 41.00548 4.48806 35938 ft 491 kts
2026-05-04 16:37 41.10621 4.51263 35955 ft 491 kts
2026-05-04 16:38 41.24072 4.54534 35935 ft 491 kts
2026-05-04 16:39 41.40820 4.58638 35918 ft 491 kts
2026-05-04 16:40 41.54263 4.61944 35948 ft 491 kts
2026-05-04 16:41 41.71033 4.66087 35954 ft 490 kts
2026-05-04 16:43 41.87571 4.72247 35939 ft 495 kts 11°
2026-05-04 16:43 41.97485 4.76140 35952 ft 494 kts 11°
2026-05-04 16:44 48.65822 3.02205 36563 ft 483 kts 360°
2026-05-04 16:45 48.72483 3.02112 35923 ft 473 kts 355°
2026-05-04 16:46 48.88372 2.97910 35925 ft 459 kts 328°
2026-05-04 16:47 48.99438 2.88305 35937 ft 458 kts 326°
2026-05-04 16:48 49.10454 2.78622 35942 ft 459 kts 326°
2026-05-04 16:49 49.21508 2.68847 35941 ft 459 kts 326°
2026-05-04 16:50 49.32558 2.59037 35953 ft 459 kts 326°
2026-05-04 16:51 49.40834 2.51652 35951 ft 458 kts 326°
2026-05-04 16:52 49.51759 2.41601 35957 ft 455 kts 319°
2026-05-04 16:53 49.58913 2.32209 35955 ft 452 kts 316°
2026-05-04 16:54 49.68445 2.19567 35959 ft 452 kts 316°
2026-05-04 16:55 49.82683 2.00455 35929 ft 452 kts 316°
2026-05-04 16:56 49.87448 1.94034 34559 ft 464 kts 316°
2026-05-04 16:56 49.94681 1.84262 32833 ft 454 kts 316°
2026-05-04 16:57 49.97052 1.81053 32286 ft 450 kts 316°
2026-05-04 16:57 50.01733 1.74707 31156 ft 442 kts 316°
2026-05-04 16:58 50.08572 1.65389 29564 ft 432 kts 317°
2026-05-04 16:58 50.10825 1.62345 29078 ft 426 kts 317°
2026-05-04 16:59 50.15251 1.56364 28101 ft 416 kts 317°
2026-05-04 17:00 50.23762 1.44777 26308 ft 396 kts 317°
2026-05-04 17:00 50.29875 1.36414 25030 ft 383 kts 316°
2026-05-04 17:01 50.33846 1.30944 24152 ft 377 kts 316°
2026-05-04 17:01 50.37768 1.25552 23220 ft 373 kts 316°
2026-05-04 17:02 50.41632 1.20217 22337 ft 366 kts 317°
2026-05-04 17:02 50.45425 1.14971 21457 ft 361 kts 317°
2026-05-04 17:03 50.47281 1.12400 21029 ft 359 kts 316°
2026-05-04 17:03 50.49148 1.09810 20597 ft 357 kts 316°
2026-05-04 17:03 50.52737 1.04474 19735 ft 353 kts 312°
2026-05-04 17:04 50.56077 0.98842 18884 ft 351 kts 313°
2026-05-04 17:04 50.59395 0.93242 18008 ft 349 kts 313°
2026-05-04 17:05 50.62682 0.87688 17171 ft 344 kts 313°
2026-05-04 17:05 50.65929 0.82196 16344 ft 341 kts 313°
2026-05-04 17:06 50.68655 0.76197 15629 ft 334 kts 297°
2026-05-04 17:06 50.69708 0.72954 15298 ft 331 kts 296°
2026-05-04 17:07 50.71771 0.66518 14615 ft 327 kts 296°
2026-05-04 17:07 50.72447 0.64400 14384 ft 325 kts 296°
2026-05-04 17:07 50.73802 0.60139 13936 ft 323 kts 296°
2026-05-04 17:07 50.74803 0.56975 13580 ft 321 kts 296°
2026-05-04 17:08 50.75798 0.53826 13202 ft 319 kts 296°
2026-05-04 17:08 50.77771 0.47589 12464 ft 316 kts 296°
2026-05-04 17:08 50.78739 0.44538 12100 ft 314 kts 296°
2026-05-04 17:09 50.79716 0.41466 11735 ft 312 kts 296°
2026-05-04 17:09 50.80685 0.38419 11372 ft 310 kts 296°
2026-05-04 17:09 50.81657 0.35375 11006 ft 308 kts 296°
2026-05-04 17:10 50.83576 0.29359 10363 ft 302 kts 296°
2026-05-04 17:10 50.86322 0.20733 9569 ft 288 kts 296°
2026-05-04 17:11 50.87218 0.17913 9208 ft 286 kts 296°
2026-05-04 17:11 50.88108 0.15107 8848 ft 284 kts 296°
2026-05-04 17:11 50.89872 0.09562 8124 ft 280 kts 296°
2026-05-04 17:12 50.90745 0.06806 7750 ft 278 kts 296°
2026-05-04 17:12 50.92374 0.01279 7017 ft 275 kts 292°
2026-05-04 17:13 50.94422 -0.07055 6107 ft 261 kts 291°
2026-05-04 17:14 50.96256 -0.14695 5252 ft 242 kts 291°
2026-05-04 17:14 50.96838 -0.17197 4991 ft 241 kts 291°
2026-05-04 17:14 50.97981 -0.22159 4336 ft 239 kts 291°
2026-05-04 17:15 50.98551 -0.24636 3971 ft 238 kts 291°
2026-05-04 17:15 50.99669 -0.29584 3411 ft 236 kts 291°
2026-05-04 17:16 51.00768 -0.34455 2997 ft 236 kts 291°
2026-05-04 17:16 51.02436 -0.41842 3007 ft 236 kts 291°
2026-05-04 17:17 51.02992 -0.44297 3004 ft 236 kts 291°
2026-05-04 17:17 51.05540 -0.49524 3008 ft 192 kts 347°
2026-05-04 17:18 51.06846 -0.49859 3006 ft 189 kts
2026-05-04 17:18 51.09090 -0.47894 3045 ft 187 kts 40°
2026-05-04 17:19 51.10976 -0.45098 3001 ft 185 kts 56°
2026-05-04 17:19 51.11694 -0.41421 3011 ft 170 kts 76°
2026-05-04 17:20 51.12205 -0.37782 2430 ft 166 kts 76°
2026-05-04 17:20 51.12705 -0.34206 1962 ft 165 kts 76°
2026-05-04 17:20 51.12954 -0.32420 1738 ft 165 kts 76°
2026-05-04 17:21 51.13447 -0.28882 1294 ft 167 kts 77°
2026-05-04 17:21 51.13964 -0.25166 807 ft 166 kts 77°
2026-05-04 17:22 51.14199 -0.23470 593 ft 150 kts 77°
2026-05-04 17:22 51.14414 -0.21916 372 ft 141 kts 77°
2026-05-04 17:23 51.14861 -0.18721 210 ft 27 kts 74°
2026-05-04 17:23 51.14959 -0.18485 210 ft 20 kts 51°
2026-05-04 17:23 51.15089 -0.18229 211 ft 12 kts 50°
2026-05-04 17:24 51.15121 -0.18193 208 ft 0 kts 13°
2026-05-04 17:27 51.15204 -0.18146 209 ft 9 kts 68°
2026-05-04 17:28 51.15319 -0.18125 204 ft 12 kts 348°
2026-05-04 17:29 51.15628 -0.18243 204 ft 11 kts 351°
2026-05-04 17:29 51.15779 -0.18081 213 ft 11 kts 32°
2026-05-04 17:30 51.16032 -0.18147 207 ft 8 kts 358°
2026-05-04 17:31 51.16065 -0.18029 210 ft 2 kts 77°
2026-05-04 17:31 51.16066 -0.18022 213 ft 0 kts 78°